ONEWEB-0121 (47267 NORAD) Tracking and Keplerian Element Data
This shows tracking and keplerian element data for the satellite.
Feedback or suggestion? Click here.
Element | Value |
Catalog | 47267 |
Name | ONEWEB-0121 |
Epoch Orbit | 512 |
Epoch Day | 21.16668981 |
Epoch Year | 2021 |
RAAN | 27.9685 |
Inclination | 87.3384 |
Eccentricity | 0.0012392 |
Argument of Perigee | 152.4624 |
Mean Anonmoly | 141.4533 |
Mean Motion | 14.86059279 |
Decay Rate | -0.01449547 |
L1 | 1 47267U 20100K 21021.16668981 -.01449547 00000-0 -17913+0 0 9996 |
L2 | 2 47267 87.3384 27.9685 0012392 152.4624 141.4533 14.86059279 5129 |
Live tracking and technical data element details for ONEWEB-0121 (NORAD 47267). ONEWEB-0121 can be tracked NOW for your location showing map with azimuth and elevation plus other details from your city location.
Track the satellite on the map from your city or location and see movement details for azimuth, elevation, latitude, longitude, range, height, and movement on the map or in text.
IsCatalogInMostPopularTable: catalog: 47267, numindb: 14
Update: records affected: 1
GetName: 47267 ONEWEB-0121
Hit Count: updated at: Sat, 23 Jan 2021 18:35:02 GMT